{"data":{"norad_id":61900,"intl_designator":"2024-205G","name":"2024-205G","alt_names":[],"object_type":"PAYLOAD","status":"ACTIVE","operator":null,"country":"PRC","launch_date":"2024-11-11","launch_site_code":"JSC","launch_vehicle":null,"mission":null,"orbit_class":"UNKNOWN","rcs_meters":null,"size_class":null,"mass_kg":null,"dimensions":null,"purposes":[],"wikipedia_slug":null,"has_3d_model":false,"image_url":null,"decayed_at":null,"tle_current":{"epoch":"2026-05-25T04:06:32.308128Z","epoch_age_seconds":70455,"freshness":"FRESH","line1":"1 61900U 24205G   26145.17120727  .00005229  00000+0  32084-3 0  9991","line2":"2 61900  97.4134 215.7489 0018382 224.1512 135.8251 15.10403697 84688","mean_motion":15.10403697,"eccentricity":0.0018382,"inclination_deg":97.4134,"raan_deg":215.7489,"arg_perigee_deg":224.1512,"mean_anomaly_deg":135.8251,"bstar":0.00032084,"rev_number":8468,"period_min":95.338749690574,"perigee_km":522.26024735153,"apogee_km":547.67558626769,"semimajor_km":6913.1049168096,"source":"CELESTRAK","updated_at":"2026-05-25T13:38:02.603587Z"}}}